Showing default

RCM 2, 44324

Orbit data source: Space-Track

RCM 2, 44324 is a payload satellite owned by CSA (CA) in SSO that was launched on Wed, 12 Jun 2019 UTC via an FALCON 9 launch vehicle from the Air Force Western Test Range (AFWTR). Payload-class satellites include a variety of spacecraft equipped with specific instruments for various scientific and technological missions. These include communications satellites like Starlink; space stations such as the ISS; scientific satellites like the Hubble; Earth observation satellites from companies like Planet Labs, Umbra, and HawkEye 360; GPS; miniature CubeSats for education and research; and military/defense satellites.

Loading next visibility...
Identifier
44324, 2019-033C
Orbit
SSO
Country
Flag of CACA
Related business
Manufacturer
BALM/MAXAR
Mission
Operational Civil Radar Imaging
Bus & Motor
MAC-200, Unknown motor
Mass
1,450 kg wet, ~1,400 kg dry
Launch date (UTC)
2019-06-12 (6 years ago)
Launch vehicle
FALCON 9
Launch site
Air Force Western Test Range (AFWTR)
Object type
Payload
Rocket body
Debris
Shape & HBR
Box + 2 Pan, 3.5 m
Radar Cross Section
10.097 m², Large (>1 m²)

Expand to show TLE details & history
Last TLE update: 2 days ago

TLE from 2 days ago
0 RCM 2
1 44324U 19033C   25258.98946725 -.00000051  00000-0  41936-6 0  9991
2 44324  97.7603 265.4147 0001434  89.0748 271.0636 14.92588368341184
Epoch: 2025-09-15T23:44Z
TLE epoch observation values (Epoch: 2025-09-15T23:44:49.97Z)
Latitude
0.00003°
Longitude
-85.97972°
Altitude
592.893 km
Speed
7.564 km/s
True Right ascension
17h 41m 39s
True Declination
0° 00' 00"
Sunlit
Object was in daylight at epoch
Visualization orbit readout
Latitude
Unknown
Longitude
Unknown
Altitude
Unknown
Speed
Unknown
Apparent Right ascension
Unknown
Apparent Declination
Unknown
Sunlit
N/A
Visualization observer readout
Local Sidereal Time
00:07:29
Azimuth
Unknown
Elevation
Unknown
Doppler factor
Unknown
Orbital elements
Apogee altitude
587.885 km
Perigee altitude
585.887 km
Semi-major axis
6,965.023 km
Eccentricity
0.00014
Inclination
97.7603°
RAAN
265.4147°
Arg. of periapsis
89.0748°
True anomaly
271.04717°
Mean anomaly
271.0636°
Eccentric anomaly
271.05539°
Mean motion
3.73387 °/min
Orbital period
96.41 mins
BSTAR
4.1936e-7
Loading maneuver chart data...
Computing Atmospheric mass density...
Loading historical data...
Loading historical data...
Loading historical data...
Loading historical data...
Loading historical data...
Loading historical data...
Loading historical data...
Other satellites on launch #33 in the year 2019 (2019-06-12 UTC)

Documentation

Showing up to 5 results
|